Zurück zum Katalog

STARLINK-5231

AktivKommunikationVLEO
NORAD 54182·PAYLOAD·🇺🇸 United States

Gestartet Oct 28, 2022 von Vandenberg Space Force Base

Loading…

Nächste Überflüge (nächste 24 Stunden)

TLE

AktuellSource: CelesTrak SupGP

Epoche: Sep 15, 2026, 02:30 UTC

1 54182C 22141AB  26258.10465278  .00503950  00000+0  28844-1 0  2582
2 54182  53.1602 202.7744 0001372  85.1025 141.1252 15.11892289    12

Verfolge STARLINK-5231 in Echtzeit mit AllMySat

Download on the App Store